This demonstration page uses our WeatherBlox Daily Observations layout. Learn more.

Left ArrowRight Arrow

41.12389, -100.76542

Hourly Observations for March 28, 2019

Temp ( °F °C ) Dew Point ( °F °C ) Humidity (%) Winds ( mph kmh ) Pressure ( in mb ) Visibility ( mi km ) Precip ( " mm )
12:53 am 00:53 Clear 48 8.9 39 3.9 71 71 SE 3 6 29.98 1015 10 16 0.00 0.00
1:53 am 01:53 Mostly Clear 48 8.9 37 2.8 66 66 E 6 9 29.96 1015 10 16 0.00 0.00
2:53 am 02:53 Cloudy 48 8.9 32 0 54 54 ENE 10 17 29.96 1015 10 16 0.00 0.00
3:53 am 03:53 Cloudy 47 8.3 30 -1.1 52 52 E 17 28 29.91 1013 10 16 0.00 0.00
4:27 am 04:27 Cloudy 47 8.3 31 -0.6 54 54 ESE 18 30 29.98 1015 10 16 0.00 0.00
4:53 am 04:53 Partly Cloudy 46 7.8 32 0 58 58 N 6 9 29.92 1013 10 16 0.00 0.00
5:53 am 05:53 Clear 45 7.2 32 0 61 61 E 9 15 29.92 1013 10 16 0.00 0.00
6:53 am 06:53 Clear 43 6.1 32 0 65 65 E 13 20 29.95 1014 10 16 0.00 0.00
7:53 am 07:53 Sunny 42 5.6 32 0 68 68 ENE 6 9 30.00 1016 10 16 0.00 0.00
8:53 am 08:53 Cloudy 42 5.6 35 1.7 76 76 NE 16 26 30.05 1018 10 16 0.00 0.00
9:06 am 09:06 Cloudy 42 5.6 35 1.7 76 76 ENE 16 26 30.10 1019 10 16 0.00 0.00
9:53 am 09:53 Cloudy 42 5.6 35 1.7 76 76 ENE 15 24 30.08 1019 10 16 0.00 0.00
10:53 am 10:53 Cloudy 42 5.6 35 1.7 76 76 ENE 15 24 30.11 1020 10 16 0.00 0.00
11:53 am 11:53 Cloudy 43 6.1 35 1.7 74 74 ENE 20 31 30.11 1020 10 16 0.00 0.00
12:53 pm 12:53 Cloudy 45 7.2 34 1.1 66 66 ENE 21 33 30.11 1020 10 16 0.00 0.00
1:31 pm 13:31 Cloudy 44 6.7 34 1.1 68 68 ENE 16 26 30.13 1020 10 16 0.00 0.00
1:53 pm 13:53 Cloudy 46 7.8 33 0.6 61 61 ENE 21 33 30.10 1019 10 16 0.00 0.00
2:53 pm 14:53 Cloudy 46 7.8 32 0 58 58 ENE 20 31 30.10 1019 10 16 0.00 0.00
3:53 pm 15:53 Cloudy 47 8.3 31 -0.6 54 54 ENE 16 26 30.11 1020 10 16 0.00 0.00
4:53 pm 16:53 Cloudy 48 8.9 31 -0.6 52 52 E 15 24 30.12 1020 10 16 0.00 0.00
5:53 pm 17:53 Cloudy 48 8.9 30 -1.1 50 50 E 14 22 30.13 1020 10 16 0.00 0.00
6:53 pm 18:53 Cloudy 47 8.3 31 -0.6 54 54 E 12 19 30.13 1020 10 16 0.00 0.00
7:53 pm 19:53 Cloudy 47 8.3 31 -0.6 54 54 E 12 19 30.14 1021 10 16 0.00 0.00
8:53 pm 20:53 Cloudy 46 7.8 32 0 58 58 E 14 22 30.14 1021 N/A 0.00 0.00
9:53 pm 21:53 Cloudy 45 7.2 34 1.1 66 66 E 12 19 30.17 1022 10 16 0.00 0.00
10:53 pm 22:53 Cloudy 45 7.2 34 1.1 66 66 E 13 20 30.17 1022 10 16 0.00 0.00
11:53 pm 23:53 Cloudy 44 6.7 34 1.1 68 68 E 9 15 30.16 1022 10 16 0.00 0.00

Powered by AerisWeather